Preview of NWS' New Version of Forecast
This preview is not operational and should not be used for support decisions.

Regional Weather Roundup (RWR)

Issued by National Weather Service (NWS)

                            
000
ASUS45 KCYS 162110
RWRWY 

WYOMING REGIONAL WEATHER ROUNDUP
NATIONAL WEATHER SERVICE CHEYENNE WY
200 PM MST SAT FEB 16 2019

NOTE:  "FAIR" INDICATES FEW OR NO CLOUDS BELOW 12,000 FEET
WITH NO SIGNIFICANT WEATHER AND/OR OBSTRUCTIONS TO VISIBILITY.

WYZ001-162200-
YELLOWSTONE NATIONAL PARK
  
CITY           SKY/WX    TMP DP  RH WIND       PRES   REMARKS
LK YELLOWSTONE   N/A     18   5  57 W10G18    29.61F WCI   6          
W YELLOWSTONE  NOT AVBL                                               

$$
WYZ002>013-054>058-071-098>099-162200-
NORTHERN WYOMING
  
CITY           SKY/WX    TMP DP  RH WIND       PRES   REMARKS
JACKSON        FLURRIES  24  11  57 SW12      29.68R WCI  13          
CODY           CLOUDY    32  15  49 N6        29.61R WCI  26          
GREYBULL       PTSUNNY   36  18  48 N21       29.61S WCI  25          
WORLAND        FAIR      34  16  47 N13       29.61R WCI  25          
SHERIDAN       PTSUNNY   17  10  74 NW16      29.66R WCI   2          
BUFFALO        CLOUDY    20  13  74 N18       29.55S WCI   5          
GILLETTE       FAIR      23  17  78 N18       29.57R WCI   9          
HULETT         LGT SNOW  14   9  79 MISG      29.60                   
NEWCASTLE        N/A     25  18  74 NW21      29.55  WCI  10          

$$
WYZ014>020-022>026-101>103-162200-
CENTRAL WYOMING
  
CITY           SKY/WX    TMP DP  RH WIND       PRES   REMARKS
BIG PINEY      FAIR      23  10  57 NW13      29.66S WCI  11          
PINEDALE       FAIR      21  10  63 W17G23    29.65  WCI   7          
DUBOIS         MOCLDY    23   9  54 NW21G30   29.57R WCI   8          
LANDER         FAIR      32   7  35 N16G22    29.56F WCI  21          
RIVERTON       FAIR      33   7  33 W18G28    29.57S WCI  22          
CASPER         PTSUNNY   32  23  69 NE10      29.55R WCI  24          
DOUGLAS        FAIR      32  20  61 N20       29.55F WCI  20          

$$
WYZ021-027>030-104>119-162200-
SOUTHERN WYOMING
  
CITY           SKY/WX    TMP DP  RH WIND       PRES   REMARKS
EVANSTON       FAIR      20  12  71 SW16      29.73S WCI   6          
KEMMERER         N/A     21  14  73 W28       29.67  HAZE    WCI   3  
FORT BRIDGER   PTCLDY    23  14  68 E22G29    29.74S HAZE    WCI   8  
ROCK SPRINGS   PTSUNNY   22  12  65 W25G35    29.68R WCI   5          
DIXON          CLOUDY    28  13  54 W17       29.70S WCI  15          
RAWLINS        FAIR      24  14  65 W24G37    29.60R WCI   8          
SARATOGA       MOCLDY    23  12  63 W28G37    29.61F WCI   6          
LARAMIE        CLOUDY    24   6  46 W24G31    29.50S WCI   8          
CHEYENNE       CLOUDY    29   8  41 NW26G43   29.50R WCI  14          
TORRINGTON     CLOUDY    35  21  56 N22G36    29.51F WCI  23          
PINE BLUFFS    CLOUDY    36  14  41 N25G32    29.49R WCI  23          

$$